Previsão horária em Aliağa

Hoje, 1 Dezembro, Terça-feira

Tempo Temperatura Precipitação Vento Pressão Humidade
00:00 +9°C° 0 mm 5 m/s 757 mmHg 77%
01:00 +9°C° 0 mm 5 m/s 757 mmHg 80%
02:00 +8°C° 0 mm 5 m/s 757 mmHg 83%
03:00 +8°C° 0 mm 4 m/s 757 mmHg 84%
04:00 +8°C° 0 mm 4 m/s 757 mmHg 84%
05:00 +8°C° 0 mm 4 m/s 757 mmHg 85%
06:00 +8°C° 0 mm 4 m/s 757 mmHg 84%
07:00 +8°C° 0 mm 4 m/s 757 mmHg 83%
08:00 +8°C° 0 mm 4 m/s 758 mmHg 81%
09:00 +10°C° 0 mm 4 m/s 758 mmHg 74%
10:00 +12°C° 0 mm 4 m/s 758 mmHg 67%
11:00 +13°C° 0 mm 4 m/s 758 mmHg 60%
12:00 +14°C° 0 mm 4 m/s 758 mmHg 57%
13:00 +14°C° 0 mm 4 m/s 757 mmHg 55%
14:00 +15°C° 0 mm 4 m/s 757 mmHg 53%
15:00 +13°C° 0 mm 4 m/s 757 mmHg 58%
16:00 +12°C° 0 mm 4 m/s 757 mmHg 64%
17:00 +11°C° 0 mm 4 m/s 757 mmHg 69%
18:00 +10°C° 0 mm 4 m/s 758 mmHg 71%
19:00 +10°C° 0 mm 4 m/s 758 mmHg 73%
20:00 +8°C° 0 mm 4 m/s 758 mmHg 75%
21:00 +9°C° 0 mm 3 m/s 758 mmHg 77%
22:00 +9°C° 0 mm 3 m/s 759 mmHg 79%
23:00 +8°C° 0 mm 3 m/s 759 mmHg 80%

Amanhã, 2 Dezembro, Quarta-feira

Tempo Temperatura Precipitação Vento Pressão Humidade
00:00 +8°C° 0 mm 3 m/s 759 mmHg 81%
01:00 +8°C° 0 mm 3 m/s 759 mmHg 81%
02:00 +8°C° 0 mm 3 m/s 759 mmHg 81%
03:00 +8°C° 0 mm 2 m/s 759 mmHg 83%
04:00 +8°C° 0 mm 2 m/s 759 mmHg 85%
05:00 +7°C° 0 mm 2 m/s 759 mmHg 87%
06:00 +7°C° 0 mm 2 m/s 759 mmHg 87%
07:00 +8°C° 0 mm 2 m/s 759 mmHg 87%
08:00 +8°C° 0 mm 2 m/s 760 mmHg 87%
09:00 +9°C° 0 mm 2 m/s 760 mmHg 78%
10:00 +12°C° 0 mm 2 m/s 760 mmHg 70%
11:00 +14°C° 0 mm 2 m/s 760 mmHg 62%
12:00 +15°C° 0 mm 2 m/s 759 mmHg 59%
13:00 +15°C° 0 mm 2 m/s 759 mmHg 57%
14:00 +16°C° 0 mm 2 m/s 759 mmHg 54%
15:00 +15°C° 0 mm 2 m/s 759 mmHg 61%
16:00 +13°C° 0 mm 2 m/s 759 mmHg 67%
17:00 +12°C° 0 mm 2 m/s 759 mmHg 73%
18:00 +10°C° 0 mm 2 m/s 759 mmHg 77%
19:00 +10°C° 0 mm 2 m/s 760 mmHg 80%
20:00 +9°C° 0 mm 2 m/s 760 mmHg 84%
21:00 +8°C° 0 mm 2 m/s 760 mmHg 85%
22:00 +8°C° 0 mm 2 m/s 760 mmHg 86%
23:00 +8°C° 0 mm 2 m/s 760 mmHg 87%

Depois de amanhã, 3 Dezembro, Quinta-feira

Tempo Temperatura Precipitação Vento Pressão Humidade
00:00 +8°C° 0 mm 2 m/s 760 mmHg 87%
01:00 +7°C° 0 mm 2 m/s 760 mmHg 87%
02:00 +7°C° 0 mm 2 m/s 760 mmHg 87%
03:00 +7°C° 0 mm 2 m/s 760 mmHg 87%
04:00 +7°C° 0 mm 2 m/s 760 mmHg 87%
05:00 +7°C° 0 mm 2 m/s 760 mmHg 87%
06:00 +7°C° 0 mm 2 m/s 760 mmHg 86%
07:00 +7°C° 0 mm 2 m/s 760 mmHg 85%
08:00 +7°C° 0 mm 2 m/s 760 mmHg 84%
09:00 +9°C° 0 mm 2 m/s 760 mmHg 75%
10:00 +12°C° 0 mm 2 m/s 760 mmHg 66%
11:00 +14°C° 0 mm 2 m/s 759 mmHg 57%
12:00 +15°C° 0 mm 2 m/s 759 mmHg 54%
13:00 +16°C° 0 mm 1 m/s 759 mmHg 50%
14:00 +18°C° 0 mm 1 m/s 758 mmHg 47%
15:00 +16°C° 0 mm 1 m/s 758 mmHg 52%
16:00 +15°C° 0 mm 1 m/s 758 mmHg 57%
17:00 +13°C° 0 mm 1 m/s 758 mmHg 62%
18:00 +13°C° 0 mm 1 m/s 757 mmHg 63%
19:00 +13°C° 0 mm 2 m/s 757 mmHg 65%
20:00 +12°C° 0 mm 2 m/s 757 mmHg 66%
21:00 +12°C° 0 mm 2 m/s 757 mmHg 66%
22:00 +13°C° 0 mm 2 m/s 757 mmHg 66%
23:00 +13°C° 0 mm 2 m/s 757 mmHg 66%

4 Dezembro, Sexta-feira

Tempo Temperatura Precipitação Vento Pressão Humidade
00:00 +13°C° 0 mm 2 m/s 756 mmHg 67%
01:00 +12°C° 0 mm 2 m/s 756 mmHg 67%
02:00 +12°C° 0 mm 2 m/s 756 mmHg 68%
03:00 +12°C° 0 mm 2 m/s 755 mmHg 69%
04:00 +11°C° 0 mm 3 m/s 755 mmHg 70%
05:00 +11°C° 0 mm 3 m/s 755 mmHg 70%
06:00 +11°C° 0 mm 3 m/s 755 mmHg 69%
07:00 +12°C° 0 mm 3 m/s 755 mmHg 68%
08:00 +12°C° 0 mm 4 m/s 755 mmHg 67%
09:00 +13°C° 0 mm 4 m/s 755 mmHg 63%
10:00 +15°C° 0 mm 4 m/s 755 mmHg 58%
11:00 +17°C° 0 mm 5 m/s 755 mmHg 54%
12:00 +17°C° 0.1 mm 5 m/s 755 mmHg 54%
13:00 +18°C° 0.1 mm 4 m/s 754 mmHg 54%
14:00 +19°C° 0.1 mm 4 m/s 754 mmHg 55%
15:00 +18°C° 0.1 mm 4 m/s 754 mmHg 59%
16:00 +17°C° 0.1 mm 4 m/s 754 mmHg 63%
17:00 +15°C° 0.1 mm 4 m/s 754 mmHg 67%
18:00 +15°C° 0 mm 4 m/s 755 mmHg 70%
19:00 +14°C° 0 mm 3 m/s 755 mmHg 74%
20:00 +14°C° 0 mm 3 m/s 755 mmHg 77%
21:00 +14°C° 0 mm 3 m/s 755 mmHg 78%
22:00 +13°C° 0 mm 3 m/s 756 mmHg 78%
23:00 +13°C° 0 mm 3 m/s 756 mmHg 79%

5 Dezembro, Sábado

Tempo Temperatura Precipitação Vento Pressão Humidade
00:00 +13°C° 0 mm 3 m/s 756 mmHg 80%
01:00 +13°C° 0 mm 3 m/s 756 mmHg 81%
02:00 +12°C° 0 mm 3 m/s 756 mmHg 81%
03:00 +12°C° 0 mm 3 m/s 756 mmHg 82%
04:00 +12°C° 0 mm 3 m/s 756 mmHg 82%
05:00 +11°C° 0 mm 3 m/s 756 mmHg 83%
06:00 +11°C° 0 mm 3 m/s 756 mmHg 81%
07:00 +12°C° 0 mm 3 m/s 757 mmHg 80%
08:00 +12°C° 0 mm 3 m/s 757 mmHg 78%
09:00 +14°C° 0 mm 3 m/s 757 mmHg 70%
10:00 +17°C° 0 mm 3 m/s 757 mmHg 62%
11:00 +19°C° 0 mm 3 m/s 757 mmHg 54%
12:00 +19°C° 0 mm 3 m/s 757 mmHg 52%
13:00 +20°C° 0 mm 3 m/s 757 mmHg 50%
14:00 +21°C° 0 mm 4 m/s 757 mmHg 47%
15:00 +19°C° 0 mm 3 m/s 757 mmHg 52%
16:00 +18°C° 0 mm 3 m/s 757 mmHg 57%
17:00 +16°C° 0 mm 2 m/s 757 mmHg 62%
18:00 +16°C° 0 mm 2 m/s 757 mmHg 63%
19:00 +15°C° 0 mm 2 m/s 757 mmHg 64%
20:00 +15°C° 0 mm 2 m/s 758 mmHg 65%
21:00 +15°C° 0 mm 2 m/s 758 mmHg 67%
22:00 +14°C° 0 mm 2 m/s 758 mmHg 68%
23:00 +14°C° 0 mm 2 m/s 758 mmHg 70%

6 Dezembro, Domingo

Tempo Temperatura Precipitação Vento Pressão Humidade
00:00 +14°C° 0 mm 2 m/s 758 mmHg 72%
01:00 +13°C° 0 mm 2 m/s 758 mmHg 73%
02:00 +13°C° 0 mm 2 m/s 758 mmHg 75%
03:00 +13°C° 0 mm 2 m/s 758 mmHg 76%
04:00 +13°C° 0 mm 2 m/s 758 mmHg 77%
05:00 +13°C° 0 mm 2 m/s 758 mmHg 77%
06:00 +12°C° 0 mm 3 m/s 758 mmHg 76%
07:00 +12°C° 0 mm 3 m/s 758 mmHg 75%
08:00 +12°C° 0 mm 3 m/s 758 mmHg 74%
09:00 +14°C° 0 mm 3 m/s 758 mmHg 66%
10:00 +17°C° 0 mm 3 m/s 758 mmHg 57%
11:00 +19°C° 0 mm 3 m/s 758 mmHg 49%
12:00 +20°C° 0 mm 3 m/s 758 mmHg 46%
13:00 +20°C° 0 mm 3 m/s 757 mmHg 44%
14:00 +21°C° 0 mm 3 m/s 757 mmHg 42%
15:00 +20°C° 0 mm 3 m/s 757 mmHg 46%
16:00 +18°C° 0 mm 2 m/s 757 mmHg 51%
17:00 +17°C° 0 mm 2 m/s 756 mmHg 55%
18:00 +16°C° 0 mm 2 m/s 756 mmHg 57%
19:00 +15°C° 0 mm 2 m/s 757 mmHg 58%
20:00 +15°C° 0 mm 2 m/s 757 mmHg 59%
21:00 +15°C° 0 mm 2 m/s 757 mmHg 61%
22:00 +14°C° 0 mm 2 m/s 757 mmHg 62%
23:00 +14°C° 0 mm 2 m/s 757 mmHg 64%
Mostrar mais